Content
SEND FEEDBACK

Daily
Averages
Monthly
Summary
United States of America

PRUDHOE BAY, ALASKA


Home > North America > United States > Alaska
Elevation: 5 feet     Latitude: 70 15N     Longitude: 148 20W

WEATHER
 
SELECT A DAY
Number of Records: 235,274;   Date Range: 1/1/95 - 7/7/14
 
SHARE

PRINT THIS DATA

[ ← Previous Day ]
WEATHER ALMANAC - JANUARY 31, 2013
[ Next Day → ]
[ °C ]   °F
Weather ElementAverageHighLow
Temperature-19.8 °F-17 °F (11:53 pm)-22 °F (1:53 am)
Dewpoint-26.7 °F-23.8 °F (11:39 pm)-29 °F (1:53 am)
Humidity70.7 %76 % (4:11 pm)66 % (3:53 am)
Barometer30.18 in30.29 in (11:53 pm)30.11 in (3:53 am)
Wind Speed10.1 mph15 mph (3:53 am)
Weather ElementAverage
Visibility9.2 mi
Wind DirectionENE (70 °)

Weather ElementTotal
Precipitation---
Heating Degree Days84.5 (Base 65)
Averaged from 24 records on January 31, 2013
WEATHER CONDITIONS BREAKOUT
WIND DIRECTION BREAKOUT
WEATHER BY HOUR - JANUARY 31, 2013
[ °C ]   °F
Local TimeTemperatureDewpointHumidityBarometerVisibilityWind DirectionWind SpeedGust SpeedPrecipitationEventsConditions
1:53 AM-22.0 °F-29.0 °F70 %30.13 in10.0 miENE (60°)11.5 mphOvercast
3:53 AM-20.9 °F-29.0 °F66 %30.11 in10.0 miENE (70°)15.0 mphOvercast
4:53 AM-20.9 °F-27.9 °F70 %30.11 in10.0 miENE (70°)13.8 mphOvercast
5:53 AM-20.9 °F-27.9 °F70 %30.11 in10.0 miENE (70°)11.5 mphMostly Cloudy
6:53 AM-20.9 °F-27.9 °F70 %30.11 in10.0 miENE (70°)12.7 mphOvercast
7:53 AM-20.9 °F-27.9 °F70 %30.12 in10.0 miENE (60°)8.1 mphOvercast
8:53 AM-20.9 °F-27.9 °F70 %30.12 in10.0 miENE (60°)9.2 mphOvercast
9:53 AM-20.9 °F-27.9 °F70 %30.13 in10.0 miENE (60°)10.4 mphMostly Cloudy
10:53 AM-20.0 °F-27.0 °F70 %30.15 in10.0 miNE (50°)8.1 mphOvercast
11:53 AM-20.9 °F-27.9 °F70 %30.16 in10.0 miENE (60°)9.2 mphMostly Cloudy
12:53 PM-20.0 °F-27.0 °F70 %30.19 in10.0 miNE (50°)9.2 mphOvercast
1:53 PM-20.0 °F-26.0 °F74 %30.18 in10.0 miENE (60°)10.4 mphOvercast
2:53 PM-20.0 °F-26.0 °F74 %30.19 in10.0 miENE (60°)10.4 mphOvercast
3:53 PM-20.0 °F-26.0 °F74 %30.20 in10.0 miENE (70°)9.2 mphOvercast
4:11 PM-20.2 °F-25.6 °F76 %30.19 in10.0 miENE (60°)10.4 mphOvercast
4:53 PM-18.9 °F-26.0 °F70 %30.20 in10.0 miENE (70°)12.7 mphOvercast
5:53 PM-18.9 °F-26.0 °F70 %30.21 in10.0 miEast (90°)12.7 mphOvercast
6:53 PM-18.9 °F-26.0 °F70 %30.22 in10.0 miEast (80°)11.5 mphOvercast
7:53 PM-18.9 °F-27.0 °F66 %30.22 in10.0 miEast (80°)12.7 mphOvercast
8:53 PM-18.9 °F-26.0 °F70 %30.24 in10.0 miEast (80°)10.4 mphOvercast
9:53 PM-18.9 °F-26.0 °F70 %30.26 in10.0 miEast (90°)9.2 mphOvercast
10:53 PM-18.0 °F-25.1 °F70 %30.27 in5.0 miEast (90°)5.8 mphSnowLight Snow
11:39 PM-18.4 °F-23.8 °F76 %30.27 in2.5 miEast (80°)4.6 mphSnowLight Snow
11:53 PM-17.0 °F-24.0 °F70 %30.29 in2.5 miEast (90°)4.6 mphSnowLight Snow
Hourly data recorded from PASC, located miles away from Prudhoe Bay, Alaska







STORIES FROM OUR PARTNERS